Location: Colossi of Memnon
(25.7167°N, 32.6167°E)
Time: 11:25:35
(UTC+00:00)

Envisat - Pass Details

Date: 25 September 2021
Orbit: 764 x 766 km, 98.2° (Epoch: 23 October)

Event Time Altitude Azimuth Distance (km) Brightness Sun altitude
Rises 02:22:07 0° 21° (NNE) 3,228 6.6 -18.2°
Reaches altitude 10° 02:24:32 10° 28° (NNE) 2,299 5.9 -17.6°
Maximum altitude 02:29:21 43° 100° (E) 1,061 4.2 -16.6°
Drops below altitude 10° 02:34:08 10° 171° (S) 2,289 5.5 -15.5°
Sets 02:36:31 0° 178° (S) 3,212 6.2 -14.9°
